Location: Unspecified
(41.5000°N, 0.0000°E)
Time: 12:11:20
(UTC+00:00)

Vanguard 2 - Pass Details

Date: 28 June 2019
Orbit: 553 x 2938 km, 32.9° (Epoch: 20 July)

Event Time Altitude Azimuth Distance (km) Brightness Sun altitude
Rises 05:24:50 0° 211° (SSW) 2,716 9.9 8.5°
Reaches altitude 10° 05:28:15 10° 178° (S) 1,838 9.3 9.1°
Maximum altitude 05:29:54 12° 153° (SSE) 1,749 9.5 9.3°
Drops below altitude 10° 05:31:38 10° 129° (SE) 1,968 10.1 9.6°
Sets 05:35:38 0° 99° (E) 3,163 11.8 10.3°
